Regional Weather Roundup
Issued by NWS Charleston, SC

Home | Current Version | Previous Version | Text Only | Print | Product List | Glossary On
Versions: 1 2 3 4 5 6 7 8 9 10 11 12 13 14 15 16 17 18 19 20 21 22 23 24 25 26 27 28 29 30 31 32 33 34 35 36 37 38 39 40 41 42 43 44 45 46 47 48 49 50
814
ASUS42 KCHS 072227
RWRCHS

REGIONAL WEATHER ROUNDUP
NATIONAL WEATHER SERVICE CHARLESTON SC
500 PM EST WED DEC 07 2016

NOTE: "FAIR" INDICATES FEW OR NO CLOUDS BELOW 12,000 FEET WITH NO
SIGNIFICANT WEATHER AND/OR OBSTRUCTIONS TO VISIBILITY.

NOT ALL STATIONS ARE QUALITY CONTROLLED. USE DATA WITH CAUTION...
ESPECIALLY DEWPOINT OBSERVATIONS.

SCZ027-030-031-034>040-042>050-072300-
...SOUTHEAST SOUTH CAROLINA...

CITY           SKY/WX    TMP DP  RH WIND       PRES   REMARKS
N CHARLESTON   CLEAR     58  47  66 SW3       30.05R
WATERFRONT PRK   N/A     60  53  77 CALM      30.04R
MOUNT PLEASANT MOCLDY    55  52  88 CALM      30.06S
JOHNS ISLAND   FAIR      57  52  82 W3        30.06S
PINOPOLIS        N/A     57  52  82 W5        29.96R
MONCKS CORNER  FAIR      54  50  87 CALM      30.05S
SUMMERVILLE    MOCLDY    54  54 100 CALM      30.07R
BEAUFORT MCAS  CLOUDY    58  54  86 E5        30.05S
BEAUFORT ARPT  CLOUDY    55  54  94 E3        30.05S
HILTON HEAD IS MOCLDY    59  55  88 NE5       30.06R
WALTERBORO     CLOUDY    55 N/A N/A CALM      30.06S
ALLENDALE      CLOUDY    57  54  88 CALM      30.04S

...SOUTHERN MIDLANDS AND PEE DEE...

CITY           SKY/WX    TMP DP  RH WIND       PRES   REMARKS
GEORGETOWN     FAIR      54  46  76 CALM      30.06
KINGSTREE      FAIR      57  46  67 SW5       30.04S
ORANGEBURG     CLOUDY    52  50  93 S3        30.06R
BARNWELL       NOT AVBL
AIKEN          CLOUDY    50  50 100 CALM      30.08S FOG
MANNING        FAIR      54  48  82 SW6       30.05S
COLUMBIA       CLOUDY    56  49  77 SW6       30.05R
SUMTER         CLEAR     58  49  72 S9        30.02R
FLORENCE       CLEAR     59  48  67 S5        30.04R
MYRTLE BEACH   CLEAR     57  48  72 S12       30.07R
N MYRTLE BEACH CLEAR     57  49  74 S6        30.04S

$$

GAZ063-065-086>088-099>101-113>116-118-119-134>141-150-072300-
...SOUTHEAST GEORGIA...

CITY           SKY/WX    TMP DP  RH WIND       PRES   REMARKS
SAVANNAH ARPT  CLOUDY    62  55  77 SE10      30.05R
HUNTER AAF     MOCLDY    59  59 100 E3        30.07R
FORT STEWART   CLEAR     67  55  66 CALM      30.02R
STATESBORO     CLEAR     62  58  86 E3        30.03S
SYLVANIA       CLOUDY   N/A N/A N/A E3        30.05R
CLAXTON        FAIR      60  60  99 CALM      30.04R

...CSRA...CENTRAL AND FAR SOUTHEAST GEORGIA...

CITY           SKY/WX    TMP DP  RH WIND       PRES   REMARKS
THOMSON        CLOUDY    55  54  95 CALM      30.09S
AUGUSTA-BUSH   CLOUDY    57  51  80 SE3       30.04R
AUGUSTA-DANIEL CLOUDY    56  50  80 SE3       30.05R
SWAINSBORO     FAIR      61  52  72 CALM      30.05R
VIDALIA        CLEAR     64  57  77 CALM      30.04S
EASTMAN        FAIR      59  45  59 CALM      30.09R
HAZLEHURST     FAIR      62  56  81 W5        30.05R
ALMA           CLEAR     63  55  75 W6        30.05R
WAYCROSS       CLEAR     66  60  80 W5        30.05S
JESUP          FAIR      64  61  88 CALM      30.04S
BAXLEY         FAIR      64  59  82 W7        30.05R
BRUNSWICK      MOCLDY    64  61  88 SE5       30.06R
SAINT SIMONS   CLEAR     63  57  81 SE6       30.04R

$$

SCZ027-028-034-036>038-045-046-048>050-GAZ119-141-072300-
...LAKE AND SUPPLEMENTAL COASTAL OBSERVATIONS...

STATION/POSITION TIME  TEMP    WIND        PRES    WAVE   SWELL
                       AIR SEA DIR/SP/G            HT/PER HT/PER/DIR
                 (UTC) (F)     (DEG/KT/KT) (MB)    (FT/S) (FT/S/D)
WINYAH BAY       2145   57     130/  6     1017.0S
LAKE MURRAY      2150   54     190/  6/  8 1016.9R
ACE BASIN NERRS  2145   56      30/  1     1017.0S
FORT PULASKI     2200   59 62   90/  6/  7 1017.7
SAPELO ISLAND    2200   63     100/  4     1017.0

$$

ANZ835-935-AMZ111-154-330-350-352-354-370-450-454-472-072300-
...C-MAN AND BUOY OBSERVATIONS...

STATION/POSITION TIME  TEMP    WIND        PRES    WAVE   SWELL
                       AIR SEA DIR/SP/G            HT/PER HT/PER/DIR
                 (UTC) (F)     (DEG/KT/KT) (MB)    (FT/S) (FT/S/D)
BUOY 41004       2150   62 74   10/  2/  4 1017.0R   2/ 7   2/150/ 7
BUOY 41008       2150   63 65   80/  4/  4 1017.1R   2/13   2/ 60/13
FOLLY BEACH CMAN 2200   56     190/  4/  5 1018.2R
CAPERS NEARSHORE 2208   56 62  170/  4/  6 1017.5R
FRIPP NEARSHORE  2208   58 62   70/  6/  8 1017.2R


STATION/POSITION TIME  TEMP    WIND        PRES    WAVE   SWELL
                       AIR SEA DIR/SP/G            HT/PER HT/PER/DIR
                 (UTC) (F)     (DEG/KT/KT) (MB)    (FT/S) (FT/S/D)
5E ST. MARYS GA  2200      66                N/A     2/ 7
FRYING PAN BUOY  2210   60 73   60/  4/  4 1017.5
BUOY 41025       2150   57 76   10/ 12/ 17 1017.3R   6/11   7/ 50/11
CAPE LOOKOUT NC  2200   54      50/  5/  6 1017.4R
BUOY 41002       2150   70 74  340/ 10/ 12 1016.4R   6/ 7   5/260/ 7
BUOY 41010       NOT AVBL
ST AUGUSTINE FL  2200   65 68  120/  2/  3 1018.2R


$$




USA.gov is the U.S. government's official web portal to all federal, state and local government web resources and services.